Location: İstanbul
(41.0082°N, 28.9784°E)
Time: 21:15:32
(UTC+02:00)

Oscar 11 - Pass Details

Date: 25 October 2021
Orbit: 614 x 623 km, 97.6° (Epoch: 01 December)

Event Time Altitude Azimuth Distance (km) Brightness Sun altitude
Rises 06:17:57 0° 16° (NNE) 2,905 10.7 -13.6°
Reaches altitude 10° 06:20:11 10° 21° (NNE) 1,996 9.9 -13.2°
Maximum altitude 06:24:28 57° 100° (E) 737 7.8 -12.4°
Drops below altitude 10° 06:28:43 10° 179° (S) 1,986 9.7 -11.6°
Sets 06:30:56 0° 184° (S) 2,888 10.5 -11.2°
